Change the Weather History Date:

Thursday, November 28, 2013

  Actual Average (KGTF) Record (KGTF)
Temperature  
Mean Temperature 36 °F 28 °F  
Max Temperature 53 °F 38 °F 64 °F (1901)
Min Temperature 18 °F 19 °F -25 °F (1985)
Degree Days  
Heating Degree Days 30 37  
Month to date heating degree days 876  
Since 1 July heating degree days 1896  
Cooling Degree Days 0 0  
Month to date cooling degree days 0  
Year to date cooling degree days 298  
Moisture  
Dew Point 18 °F    
Average Humidity 56    
Maximum Humidity 85    
Minimum Humidity 25    
Precipitation  
Precipitation 0.00 in 0.02 in 0.46 in (1933)
Month to date precipitation 0.55  
Year to date precipitation 14.16  
Snow  
Snow 0.00 in 0.30 in 5.20 in (2010)
Month to date snowfall 7.5  
Since 1 July snowfall 13.1  
Since 1 September snowfall 12.8  
Snow Depth -    
Sea Level Pressure  
Sea Level Pressure 30.15 in    
Wind  
Wind Speed 6 mph (SSW)    
Max Wind Speed 17 mph    
Max Gust Speed -    
Visibility 10 miles    
Events      
T = Trace of Precipitation, MM = Missing Value Source: NWS Daily Summary

Daily Weather History Graph

Daily Weather History Graph

Search for Another Location

Airport or City:

Trip Planner

Search our weather history database for the weather conditions in past years. The results will help you decide how hot, cold, wet, or windy it might be!

Date:

Astronomy

Nov. 28, 2013 Rise Set
Actual Time 7:48 AM MST 4:37 PM MST
Civil Twilight 7:13 AM MST 5:11 PM MST
Nautical Twilight 6:35 AM MST 5:50 PM MST
Astronomical Twilight 5:58 AM MST 6:27 PM MST
Moon 2:36 AM MST (11/28) 2:04 PM MST (11/28)
Length of Visible Light 9h 58m
Length of Day
8h 48m
Waning Crescent, 22% of the Moon is Illuminated
Nov 28
Waning Crescent
Dec 2
New
Dec 9
First Quarter
Dec 17
Full
Dec 25
Last Quarter

Hourly Weather History & Observations

Time (MST) Temp. Windchill Dew Point Humidity Pressure Visibility Wind Dir Wind Speed Gust Speed Precip Events Conditions
12:56 AM 18.0 °F 12.7 °F 14.0 °F 84% 30.24 in 10.0 mi SE 3.5 mph - N/A   Clear
1:56 AM 21.9 °F - 17.1 °F 82% 30.23 in 10.0 mi Calm Calm - N/A   Clear
2:56 AM 21.9 °F - 15.1 °F 75% 30.24 in 10.0 mi Calm Calm - N/A   Clear
3:56 AM 21.0 °F - 15.1 °F 78% 30.23 in 10.0 mi Calm Calm - N/A   Clear
4:56 AM 19.9 °F 13.4 °F 15.1 °F 81% 30.25 in 10.0 mi SSW 4.6 mph - N/A   Clear
5:56 AM 19.0 °F 12.3 °F 15.1 °F 85% 30.25 in 10.0 mi SW 4.6 mph - N/A   Clear
6:56 AM 19.9 °F 13.4 °F 15.1 °F 81% 30.25 in 10.0 mi SW 4.6 mph - N/A   Clear
7:56 AM 21.0 °F - 15.1 °F 78% 30.24 in 10.0 mi Calm Calm - N/A   Clear
8:56 AM 21.9 °F - 16.0 °F 78% 30.23 in 10.0 mi Calm Calm - N/A   Clear
9:56 AM 28.0 °F - 19.0 °F 69% 30.21 in 10.0 mi Calm Calm - N/A   Clear
10:56 AM 34.0 °F 31.0 °F 24.1 °F 67% 30.17 in 10.0 mi SSW 3.5 mph - N/A   Clear
11:56 AM 42.1 °F 40.2 °F 23.0 °F 47% 30.12 in 10.0 mi WSW 3.5 mph - N/A   Clear
12:56 PM 50.0 °F - 23.0 °F 35% 30.11 in 10.0 mi SSW 10.4 mph - N/A   Clear
1:56 PM 53.1 °F - 18.0 °F 25% 30.06 in 10.0 mi SSW 16.1 mph - N/A   Clear
2:56 PM 53.1 °F - 18.0 °F 25% 30.05 in 10.0 mi SSW 17.3 mph - N/A   Clear
3:56 PM 48.0 °F - 18.0 °F 30% 30.06 in 10.0 mi SSW 15.0 mph - N/A   Clear
4:56 PM 44.1 °F 37.4 °F 17.1 °F 34% 30.08 in 10.0 mi South 13.8 mph - N/A   Clear
5:56 PM 39.0 °F 31.8 °F 17.1 °F 41% 30.11 in 10.0 mi South 11.5 mph - N/A   Clear
6:56 PM 39.0 °F 30.6 °F 18.0 °F 43% 30.11 in 10.0 mi South 15.0 mph - N/A   Clear
7:56 PM 41.0 °F 33.1 °F 19.0 °F 41% 30.09 in 10.0 mi South 15.0 mph - N/A   Clear
8:56 PM 41.0 °F 33.5 °F 18.0 °F 40% 30.09 in 10.0 mi SSW 13.8 mph - N/A   Clear
9:56 PM 42.1 °F 33.9 °F 19.0 °F 40% 30.08 in 10.0 mi SSW 17.3 mph - N/A   Clear
10:56 PM 44.1 °F 36.8 °F 19.0 °F 37% 30.09 in - SSW 16.1 mph - N/A   Clear
11:56 PM 42.1 °F 34.9 °F 19.0 °F 40% 30.09 in - SSW 13.8 mph - N/A   Clear